EW6659 Weather Reports


time (UTC)temp
F
wind
direction
speed
knots
gust
knots
rain 1hr
in
rain 24hr
in
rain mn
in
humidity
%
barometer
mb
20260504050106 52 225 0.0 0.0 0.00 0.00 0.00 54 1007.6
20260504044556 52 134 0.0 0.0 0.00 0.00 0.00 55 1007.6
20260504043103 52 235 0.0 0.0 0.00 0.00 0.00 55 1007.7
20260504041553 52 214 0.0 0.0 0.00 0.00 0.00 55 1007.7
20260504040050 51 138 0.0 0.0 0.00 0.00 0.00 55 1007.8
20260504034554 51 234 0.0 0.0 0.00 0.00 0.00 55 1007.9
20260504033054 51 236 0.0 0.0 0.00 0.00 0.00 55 1008.0
20260504031542 51 236 0.0 0.0 0.00 0.00 0.00 55 1008.0
20260504030033 51 241 0.0 0.0 0.00 0.00 0.00 55 1008.1
20260504024535 51 117 0.0 0.0 0.00 0.00 0.00 55 1008.2
20260504023024 51 236 0.0 0.0 0.00 0.00 0.00 55 1008.6
20260504021519 52 246 0.0 0.0 0.00 0.00 0.00 55 1008.9
20260504020015 52 290 0.9 11.3 0.00 0.00 0.00 55 1009.2
20260504014511 54 255 1.7 11.3 0.00 0.00 0.00 51 1009.4
20260504013009 55 318 0.0 7.0 0.00 0.00 0.00 47 1008.9
20260504011502 56 305 0.0 10.4 0.00 0.00 0.00 46 1008.6
20260504010100 56 238 1.7 10.4 0.00 0.00 0.00 44 1008.7
20260504004600 56 240 0.0 5.2 0.00 0.00 0.00 44 1008.4
20260504003055 55 330 0.0 0.0 0.00 0.00 0.00 46 1008.1
20260504001551 54 217 0.0 0.0 0.00 0.00 0.00 46 1008.0
20260504000111 54 244 0.0 0.0 0.00 0.00 0.00 47 1007.8
20260503234542 54 260 0.0 0.0 0.00 0.00 0.00 48 1007.9
20260503233040 55 321 0.0 11.3 0.00 0.00 0.00 45 1008.4
20260503231533 55 323 0.0 7.8 0.00 0.00 0.00 44 1008.6
20260503230029 56 285 0.0 0.0 0.00 0.00 0.00 42 1008.0
20260503224529 56 290 0.0 0.0 0.00 0.00 0.00 41 1007.9
20260503223022 56 248 0.0 0.9 0.00 0.00 0.00 39 1007.9
20260503221516 57 311 0.0 1.7 0.00 0.00 0.00 38 1007.8
20260503220019 57 259 0.0 0.0 0.00 0.00 0.00 39 1008.1
20260503214510 56 249 0.0 0.9 0.00 0.00 0.00 40 1008.1
20260503213003 56 323 0.0 2.6 0.00 0.00 0.00 40 1008.1
20260503211605 56 254 0.0 1.7 0.00 0.00 0.00 40 1008.1
20260503210054 56 217 0.0 0.9 0.00 0.00 0.00 41 1008.3
20260503204554 55 311 0.0 0.9 0.00 0.00 0.00 43 1008.4
20260503203046 55 259 0.9 7.8 0.00 0.00 0.00 42 1008.5
20260503201541 55 219 0.0 4.3 0.00 0.00 0.00 42 1008.6
20260503200037 55 279 0.0 1.7 0.00 0.00 0.00 42 1008.8
20260503194532 55 314 0.0 7.8 0.00 0.00 0.00 42 1008.9
20260503193028 55 326 0.0 0.0 0.00 0.00 0.00 41 1009.0
20260503191523 54 241 0.0 7.8 0.00 0.00 0.00 40 1009.1
20260503190019 55 338 0.0 5.2 0.00 0.00 0.00 38 1009.1
20260503184518 56 232 0.0 10.4 0.00 0.00 0.00 38 1009.3
20260503183010 55 27 0.0 16.5 0.00 0.00 0.00 34 1009.5
20260503181506 55 326 0.0 11.3 0.00 0.00 0.00 36 1009.7
20260503180001 54 266 0.0 5.2 0.00 0.00 0.00 35 1010.0
20260503174558 54 321 0.0 4.3 0.00 0.00 0.00 36 1010.1
20260503173054 53 324 0.0 7.8 0.00 0.00 0.00 35 1010.2
20260503171608 53 319 0.0 12.2 0.00 0.00 0.00 34 1010.4
20260503081509 40 320 0.0 0.0 0.00 0.00 0.00 46 1011.8